Newark, NJ

4:18 PM EDT on September 20, 2019 (GMT -0400)
Newark International

Weather History for KEWR - August, 2019

Change the Weather History Date:

Sunday, August 25, 2019

  Actual Average Record
Temperature  
Mean Temperature 70 °F 75 °F  
Max Temperature 77 °F 83 °F 97 °F (1993)
Min Temperature 62 °F 66 °F 48 °F (1940)
Degree Days  
Heating Degree Days 0 0  
Month to date heating degree days 0 0  
Since 1 June heating degree days 4 17  
Since 1 July heating degree days 0 0  
Cooling Degree Days 4 10  
Month to date cooling degree days 315 281  
Year to date cooling degree days 1134 979  
Since 1 June cooling degree days 1049 903  
Growing Degree Days 20 (Base 50)    
Moisture  
Dew Point 55 °F    
Average Humidity 60    
Maximum Humidity 84    
Minimum Humidity 40    
Precipitation  
Precipitation 0.00 in 0.10 in 1.90 in (1941)
Month to date precipitation 5.92 3.12  
Year to date precipitation 41.70 30.79  
Snow  
Snow 0.00 in 0.00 in T in (1951)
Month to date snowfall 0.0 0.0  
Since 1 July snowfall 0.0 0.0  
Snow Depth 0.00 in    
Sea Level Pressure  
Sea Level Pressure 30.24 in    
Wind  
Wind Speed 10 mph ()    
Max Wind Speed 20 mph    
Max Gust Speed 28 mph    
Visibility 10.0 miles    
Events      
T = Trace of Precipitation, MM = Missing Value Source: Averaged Metar Reports

Daily Weather History Graph

Daily Weather History Graph

Search for Another Location

Airport or City:

Astronomy

Aug. 25, 2019 Rise Set
Actual Time 6:16 AM EDT 7:40 PM EDT
Civil Twilight 5:48 AM EDT 8:08 PM EDT
Nautical Twilight 5:13 AM EDT 8:42 PM EDT
Astronomical Twilight 4:37 AM EDT 9:19 PM EDT
Moon 12:48 AM EDT (8/25) 3:59 PM EDT (8/25)
Length of Visible Light 14h 20m
Length of Day
13h 23m
Waning Crescent, 29% of the Moon is Illuminated
Aug 25
Waning Crescent
Aug 30
New
Sep 5
First Quarter
Sep 14
Full
Sep 21
Last Quarter

Hourly Weather History & Observations

Time (EDT) Temp. Dew Point Humidity Pressure Visibility Wind Dir Wind Speed Gust Speed Precip Events Conditions
12:51 AM 70.0 °F 55.0 °F 59% 30.25 in 10.0 mi East 5.8 mph - N/A   Mostly Cloudy
1:51 AM 69.1 °F 57.9 °F 68% 30.23 in 10.0 mi ENE 8.1 mph - N/A   Mostly Cloudy
2:51 AM 68.0 °F 55.9 °F 65% 30.23 in 10.0 mi ENE 10.4 mph - N/A   Mostly Cloudy
3:51 AM 68.0 °F 55.9 °F 65% 30.24 in 10.0 mi ENE 6.9 mph - N/A   Mostly Cloudy
4:51 AM 64.0 °F 57.9 °F 80% 30.23 in 10.0 mi North 11.5 mph - N/A   Mostly Cloudy
5:51 AM 62.1 °F 55.9 °F 80% 30.24 in 10.0 mi North 11.5 mph - N/A   Scattered Clouds
6:51 AM 63.0 °F 55.9 °F 78% 30.25 in 10.0 mi North 12.7 mph - N/A   Partly Cloudy
7:51 AM 63.0 °F 57.0 °F 81% 30.26 in 10.0 mi NNE 13.8 mph - N/A   Mostly Cloudy
8:51 AM 66.9 °F 57.0 °F 70% 30.27 in 10.0 mi NNE 13.8 mph - N/A   Mostly Cloudy
9:51 AM 71.1 °F 55.0 °F 57% 30.27 in 10.0 mi NE 13.8 mph 21.9 mph N/A   Mostly Cloudy
10:51 AM 71.1 °F 55.0 °F 57% 30.27 in 10.0 mi NNE 16.1 mph - N/A   Mostly Cloudy
11:51 AM 73.0 °F 55.0 °F 53% 30.26 in 10.0 mi NNE 17.3 mph 24.2 mph N/A   Mostly Cloudy
12:51 PM 73.0 °F 54.0 °F 51% 30.25 in 10.0 mi NE 11.5 mph 20.7 mph N/A   Mostly Cloudy
1:51 PM 73.9 °F 53.1 °F 48% 30.24 in 10.0 mi NNE 12.7 mph - N/A   Mostly Cloudy
2:51 PM 77.0 °F 52.0 °F 42% 30.22 in 10.0 mi ENE 13.8 mph 20.7 mph N/A   Mostly Cloudy
3:51 PM 75.9 °F 52.0 °F 43% 30.20 in 10.0 mi NE 16.1 mph - N/A   Scattered Clouds
4:51 PM 75.9 °F 53.1 °F 45% 30.20 in 10.0 mi ENE 11.5 mph - N/A   Mostly Cloudy
5:51 PM 75.0 °F 55.0 °F 50% 30.21 in 10.0 mi ENE 12.7 mph 18.4 mph N/A   Mostly Cloudy
6:51 PM 73.0 °F 54.0 °F 51% 30.22 in 10.0 mi NE 11.5 mph - N/A   Mostly Cloudy
7:51 PM 72.0 °F 54.0 °F 53% 30.22 in 10.0 mi ENE 9.2 mph - N/A   Mostly Cloudy
8:51 PM 71.1 °F 55.9 °F 59% 30.22 in 10.0 mi NE 11.5 mph - N/A   Scattered Clouds
9:51 PM 70.0 °F 57.0 °F 63% 30.23 in 10.0 mi ENE 10.4 mph - N/A   Mostly Cloudy
10:51 PM 69.1 °F 57.0 °F 65% 30.23 in 10.0 mi ENE 11.5 mph - N/A   Scattered Clouds
11:51 PM 68.0 °F 57.0 °F 68% 30.23 in 10.0 mi ENE 6.9 mph - N/A   Scattered Clouds